Location: Nakusp
(50.2330°N, 117.8000°W)
Time: 10:21:01
(UTC-08:00)

Daily predictions for brighter satellites

Satellite Brightness Start Highest point End
(mag) Time Altitude Azimuth Time Altitude Azimuth Time Altitude Azimuth
Nadezhda 1 Rocket 4.0 16:21:26 10° S 16:27:31 84° E 16:33:43 10° N
GEOS 3 Rocket 4.1 16:22:58 10° E 16:27:40 38° NNE 16:32:24 10° NNW
Cosmos 1844 Rocket 3.7 16:26:25 10° SSE 16:31:00 27° ESE 16:35:38 10° NE
PAYLOAD A 4.0 16:27:10 10° SSE 16:31:54 59° ENE 16:36:51 10° N
Cosmos 2341 Rocket 4.0 16:27:55 10° N 16:34:09 72° E 16:40:20 10° SSE
COSMOS 2487 4.3 16:35:32 10° NNE 16:37:23 13° NE 16:39:13 10° E
CZ-3B DEB 3.7 16:34:25 10° SSE 16:37:43 20° ESE 16:43:38 10° ENE
Cosmos 2344 4.3 16:30:32 10° WSW 16:38:18 55° NNW 16:47:55 10° NE
SPOT 3 Rocket 3.7 16:34:20 10° SE 16:39:22 52° ENE 16:44:24 10° N
Cosmos 1674 Rocket 3.9 16:36:02 10° SSW 16:40:30 72° WNW 16:44:59 10° N
CZ-4 R/B 1.5 16:36:40 10° SSE 16:40:44 55° ENE 16:44:49 10° N
MSX 4.2 16:36:40 10° SE 16:41:59 40° ENE 16:47:18 10° N
SJ-12 4.1 16:38:27 10° SE 16:42:23 48° ENE 16:46:23 10° N
Meteor 1-27 Rocket 3.8 16:39:02 10° S 16:44:53 88° E 16:50:39 10° NNE
Cosmos 1975 4.0 16:43:37 10° NNE 16:46:49 21° ENE 16:49:59 10° ESE
Okean 3 3.5 16:44:30 10° S 16:48:45 68° E 16:53:01 10° NNE
CORIOLIS 4.3 16:43:45 10° SE 16:49:00 54° ENE 16:54:16 10° N
Okean 1 Rocket 3.7 16:44:44 10° NNW 16:49:01 59° W 16:53:16 10° S
Cosmos 372 Rocket 4.2 16:45:03 10° S 16:50:08 52° ESE 16:55:14 10° NNE
SL-16 R/B 4.0 16:46:10 10° N 16:51:40 35° WNW 16:57:08 10° WSW
MTI 4.5 16:49:23 10° N 16:52:40 58° WNW 16:55:55 10° SSW
USA 32 4.5 16:48:41 10° SSE 16:53:32 40° E 16:58:23 10° NNE
Cosmos 1544 Rocket 3.8 16:50:07 10° N 16:54:26 47° ENE 16:58:45 10° SSE
USA 234 3.5 16:48:21 11° ENE 16:54:40 58° SE 17:01:05 10° SW
COSMO-SKYMED 1 4.1 16:53:03 13° ENE 16:55:04 16° E 16:57:50 10° SE
APEX 4.2 16:51:25 10° SSW 16:57:51 75° ESE 17:02:51 10° NE
IDEFIX/ARIANE 42P 2.5 16:52:45 10° SSE 16:57:54 67° ENE 17:03:04 10° N
NOSS 3-4 (A) 4.4 16:52:44 10° NW 16:58:51 35° NNE 17:04:34 13° E
NOSS 3-4 (C) 4.4 16:52:50 10° NW 16:58:57 35° NNE 17:04:38 13° E
BREEZE M DEB (TANK) 2.3 16:57:36 10° W 17:00:12 82° S 17:06:13 11° E
COSMOS 2406 3.8 16:56:12 10° NW 17:01:51 63° WSW 17:07:29 10° SSE
Cosmos 2278 Rocket 3.4 16:57:40 10° SSE 17:01:55 22° ESE 17:04:53 15° ENE
Cosmos 1975 Rocket 3.0 16:58:23 10° S 17:02:40 66° E 17:06:58 10° NNE
ISS -1.8 16:59:57 10° SSW 17:02:46 26° SE 17:04:42 15° E
Cosmos 494 Rocket 4.0 16:58:46 10° NNW 17:03:58 60° ENE 17:09:09 10° SE
MOS 1 4.3 16:58:30 10° SSE 17:04:10 84° ENE 17:09:52 10° NNW
ASTEX 1 4.5 17:00:35 10° N 17:05:24 47° WNW 17:10:11 10° SSW
ERBS 3.7 17:04:05 10° WNW 17:07:04 27° N 17:09:00 17° NE
Genesis I 3.6 17:04:53 10° NNW 17:08:39 41° NE 17:11:58 12° ESE
Cosmos 1125 Rocket 3.6 17:03:54 10° SSW 17:09:14 81° WNW 17:14:36 10° NNE
Thor Agena Rocket 3.6 17:06:59 10° NNE 17:12:08 59° ESE 17:17:17 10° S
Meteor 1-5 Rocket 4.3 17:06:46 10° NNW 17:12:10 79° W 17:17:41 10° S
ATLAS 2AS CENTAUR R/B 3.2 17:06:45 10° NW 17:14:57 82° SW 17:22:39 10° SE
Cosmos 1484 Rocket 3.1 17:12:31 10° SE 17:16:01 39° ENE 17:19:32 10° N
Cosmos 1536 Rocket 4.2 17:15:16 10° SSE 17:19:19 35° E 17:22:38 14° NNE
CZ-2C R/B 4.4 17:17:17 10° N 17:21:37 54° WNW 17:25:59 10° SW
Cosmos 2082 Rocket 2.7 17:16:39 10° NNW 17:21:56 38° NE 17:27:09 10° ESE
Cosmos 2251 Rocket 3.6 17:19:12 10° NNW 17:24:37 86° WSW 17:29:57 10° SSE
Cosmos 1833 Rocket 3.2 17:20:21 10° NNW 17:25:34 36° NE 17:29:26 16° ESE
SL-27 R/B 3.1 17:22:00 10° NNW 17:25:39 61° WSW 17:29:15 10° S
YAOGAN 1 2.8 17:22:37 10° S 17:26:57 72° WSW 17:31:18 10° NNW
Cosmos 1500 3.5 17:25:16 10° N 17:28:55 41° ENE 17:32:34 10° SSE
MONITOR-E 4.1 17:30:57 10° SSE 17:34:09 79° ENE 17:37:22 10° N
NOAA 12 4.5 17:29:57 10° SE 17:34:51 40° ENE 17:39:45 10° N
BREEZE-M DEB (TANK) 3.9 17:27:25 10° W 17:36:07 85° S 17:37:49 31° E
CZ-2C R/B 3.3 17:35:20 10° S 17:40:14 55° W 17:45:18 10° NNW
Cosmos 1238 Rocket 1.9 17:37:23 10° S 17:40:19 72° E 17:41:16 39° NNE
Abrixas 2.8 17:37:40 10° W 17:40:36 57° S 17:41:15 43° SE
SL-24 DEB 4.2 17:36:40 10° N 17:41:25 63° E 17:46:05 10° S
SL-8 Rocket 4.5 17:35:38 10° NNW 17:41:44 63° W 17:47:46 10° S
SKYMED 2 3.8 17:41:41 28° NE 17:43:33 45° E 17:47:42 10° S
Cosmos 1455 Rocket 3.3 17:39:40 10° NNW 17:44:04 74° W 17:48:28 10° S
Resurs 01 Rocket 3.6 17:47:36 14° NNE 17:47:36 14° NNE 17:48:29 10° N
Okean 1 3.4 17:41:12 10° S 17:45:08 53° E 17:46:48 31° NE
SMAP 4.2 17:41:28 10° S 17:45:57 46° W 17:50:27 10° NNW
ATLAS CENTAUR R/B 3.7 17:45:22 10° NW 17:47:56 15° NNW 17:49:46 12° N
Cosmos 2263 Rocket 3.8 17:44:20 10° WSW 17:49:12 29° NW 17:54:08 10° NNE
Cosmos 2366 rocket 4.3 17:46:08 10° NNW 17:52:28 71° W 17:58:45 10° S
BREEZE-M DEB (TANK) 2.4 17:52:39 10° WSW 17:54:22 43° SSW 17:54:22 43° SSW
Cosmos 1812 2.7 17:52:48 10° S 17:56:40 84° WNW 17:58:58 23° N
Meteor 1-18 Rocket 4.2 17:55:19 10° S 18:00:59 88° W 18:06:48 10° NNE
Cosmos 1346 Rocket 3.3 17:59:32 10° S 18:02:29 42° SE 18:02:29 42° SE
Cosmos 1934 Rocket 4.2 17:58:06 10° N 18:03:58 43° ENE 18:09:53 10° SE
GEOS 3 Rocket 4.0 18:00:30 10° SSE 18:05:34 62° SW 18:10:40 10° NW
Timation 2 Rocket 4.1 18:01:32 10° NNW 18:08:21 84° ENE 18:15:16 10° SSE
Cosmos 1809 Rocket 4.4 18:03:59 10° N 18:10:12 86° W 18:16:20 10° S
COSMOS 2487 2.6 18:09:48 10° NNW 18:13:24 72° WSW 18:14:01 56° S
Cosmos 1844 Rocket 3.1 18:08:59 10° SW 18:14:31 60° NW 18:18:05 23° NNE
ALOS 4.3 18:18:30 15° N 18:18:30 15° N 18:19:23 10° N
CZ-4 R/B 4.4 18:13:17 10° SW 18:16:07 17° W 18:18:57 10° NW
Cosmos 2239 Rocket 4.3 18:12:23 10° N 18:18:38 68° ENE 18:24:46 10° SSE
Cosmos 1975 4.2 18:19:41 10° NNW 18:23:32 40° W 18:27:20 10° SSW
BREEZE-M DEB (TANK) 2.9 18:19:53 10° W 18:26:19 81° N 18:26:54 66° ENE
Spot 2 Rocket 3.9 18:27:59 48° NNE 18:27:59 48° NNE 18:31:54 10° N
Cosmos 1821 Rocket 3.8 18:21:33 10° N 18:27:41 75° ENE 18:33:46 10° SSE
BREEZE-M R/B 4.0 18:19:18 10° SW 18:27:46 49° SSE 18:28:24 47° SE
Cosmos 1844 4.0 18:22:57 10° SW 18:28:28 62° NW 18:31:06 31° NNE
CZ-3A R/B 4.2 18:22:25 10° WSW 18:28:54 80° NNW 18:45:47 29° ENE
Cosmos 2297 4.0 18:24:44 10° S 18:29:17 46° SE 18:29:17 46° SE
COSMO-SKYMED 1 2.9 18:30:16 40° N 18:31:39 63° WNW 18:35:57 10° SSW
USA 234 3.4 18:35:41 44° NE 18:37:48 67° NNW 18:44:17 10° WSW
Cosmos 1605 Rocket 4.4 18:31:41 10° N 18:36:31 45° NNE 18:36:31 45° NNE
ISS -1.2 18:35:41 10° WSW 18:37:22 28° WSW 18:37:22 28° WSW
Cosmos 2278 Rocket 2.3 18:39:49 10° SW 18:45:27 71° WNW 18:46:47 52° N
Meteor 1-19 Rocket 4.1 18:42:59 10° S 18:48:48 84° E 18:49:03 81° NE
FengYun 1-2 T 4.1 18:48:47 83° ESE 18:48:54 84° ENE 18:54:36 10° NNW
NOSS 3-4 (A) 3.6 18:43:46 10° NW 18:50:42 84° NE 18:52:03 62° SE
NOSS 3-4 (C) 3.6 18:43:53 10° NW 18:50:48 83° NE 18:52:08 63° ESE
Nadezhda 3 Rocket 4.2 18:48:31 10° SSW 18:54:41 67° WNW 19:00:59 10° N
NOSS 3-3 (A) 4.0 18:54:55 10° SW 19:01:15 83° NW 19:01:51 74° NNE
NOSS 3-3 (C) 4.0 18:55:01 10° SW 19:01:20 84° NW 19:01:55 75° NNE
Cosmos 2082 Rocket 3.1 19:00:46 10° NW 19:06:08 46° WSW 19:09:08 24° SSW
Cosmos 1833 Rocket 3.4 19:04:16 10° NW 19:09:42 49° WSW 19:11:14 39° SSW
CZ-3B DEB 3.1 19:05:04 10° WSW 19:10:27 83° NNW 19:12:39 58° ENE
Resurs 01 Rocket 4.4 19:25:10 12° NNW 19:25:10 12° NNW 19:25:27 10° NNW
